QPF
0.02 0.02 0.04 0.04 0.02 0.01 0.01 0.01 0.01 0.01 0.00 0.01 0.00 0.00 0.00 0.00 0.00 0.00 0.00 0.00 0.00 0.00 0.00 0.00 0.00 0.00 0.00 0.01 0.01 0.01 0.02 0.02 0.02 0.02 0.01 0.01 0.01 0.01 0.01 0.01 0.01 0.01 0.01 0.01
0.02 0.03 0.03 0.05 0.04 0.02 0.02 0.02 0.02 0.01 0.01 0.01 0.01 0.00 0.00 0.00 0.00 0.00 0.00 0.00 0.00 0.00 0.00 0.00 0.00 0.00 0.00 0.00 0.00 0.00 0.01 0.02 0.02 0.02 0.02 0.02 0.01 0.01 0.01 0.01 0.00 0.01 0.01 0.01
0.02 0.03 0.04 0.05 0.05 0.05 0.02 0.01 0.01 0.01 0.01 0.01 0.01 0.01 0.00 0.00 0.00 0.00 0.00 0.00 0.00 0.00 0.00 0.00 0.00 0.00 0.00 0.00 0.00 0.00 0.01 0.02 0.01 0.01 0.01 0.01 0.00 0.00 0.01 0.00 0.00 0.00 0.00 0.00
0.02 0.02 0.02 0.03 0.04 0.05 0.03 0.01 0.01 0.02 0.02 0.02 0.01 0.01 0.01 0.00 0.00 0.00 0.00 0.00 0.00 0.00 0.00 0.00 0.00 0.00 0.00 0.00 0.00 0.00 0.01 0.01 0.00 0.00 0.00 0.00 0.00 0.00 0.00 0.00 0.00 0.00 0.00 0.00
0.03 0.02 0.01 0.02 0.02 0.02 0.02 0.01 0.01 0.02 0.02 0.02 0.02 0.01 0.01 0.00 0.00 0.00 0.00 0.00 0.00 0.00 0.00 0.00 0.00 0.00 0.00 0.00 0.00 0.01 0.01 0.01 0.01 0.01 0.00 0.00 0.00 0.00 0.00 0.00 0.00 0.00 0.00 0.00
0.03 0.02 0.01 0.01 0.01 0.01 0.02 0.01 0.01 0.02 0.02 0.02 0.01 0.01 0.00 0.00 0.00 0.00 0.00 0.00 0.00 0.00 0.00 0.00 0.00 0.00 0.00 0.00 0.00 0.00 0.01 0.02 0.02 0.01 0.01 0.00 0.00 0.00 0.00 0.00 0.00 0.00 0.00 0.00
0.03 0.02 0.01 0.01 0.03 0.02 0.02 0.01 0.02 0.02 0.02 0.02 0.01 0.01 0.00 0.00 0.00 0.00 0.00 0.00 0.00 0.00 0.00 0.00 0.00 0.00 0.00 0.00 0.00 0.00 0.01 0.01 0.02 0.02 0.01 0.01 0.01 0.01 0.00 0.00 0.00 0.00 0.00 0.01
0.02 0.03 0.01 0.01 0.02 0.02 0.01 0.02 0.02 0.01 0.01 0.00 0.00 0.00 0.00 0.00 0.00 0.00 0.00 0.00 0.00 0.00 0.00 0.00 0.00 0.00 0.00 0.00 0.00 0.00 0.01 0.01 0.01 0.01 0.01 0.01 0.01 0.01 0.01 0.00 0.00 0.00 0.00 0.00
0.01 0.02 0.02 0.01 0.01 0.01 0.02 0.01 0.02 0.01 0.00 0.00 0.00 0.00 0.00 0.00 0.01 0.01 0.00 0.00 0.00 0.00 0.00 0.00 0.00 0.00 0.00 0.00 0.00 0.00 0.00 0.01 0.01 0.01 0.01 0.01 0.01 0.01 0.01 0.01 0.00 0.00 0.00 0.01
0.00 0.01 0.02 0.01 0.01 0.01 0.01 0.01 0.01 0.01 0.01 0.01 0.00 0.00 0.01 0.01 0.01 0.00 0.00 0.00 0.00 0.00 0.00 0.00 0.00 0.01 0.00 0.00 0.00 0.00 0.00 0.00 0.01 0.01 0.02 0.02 0.01 0.01 0.01 0.01 0.01 0.00 0.00 0.01
0.00 0.01 0.01 0.01 0.01 0.01 0.01 0.01 0.01 0.01 0.01 0.01 0.00 0.00 0.00 0.01 0.00 0.00 0.00 0.01 0.01 0.00 0.00 0.00 0.00 0.00 0.00 0.00 0.00 0.00 0.00 0.00 0.00 0.01 0.01 0.02 0.03 0.03 0.02 0.02 0.01 0.01 0.01 0.01
0.01 0.01 0.01 0.01 0.01 0.01 0.01 0.01 0.01 0.01 0.01 0.00 0.00 0.00 0.00 0.00 0.00 0.00 0.00 0.00 0.00 0.00 0.00 0.00 0.00 0.00 0.00 0.00 0.00 0.00 0.00 0.00 0.01 0.01 0.01 0.01 0.02 0.03 0.03 0.02 0.01 0.01 0.01 0.01
0.01 0.01 0.01 0.01 0.01 0.01 0.01 0.01 0.01 0.01 0.01 0.01 0.01 0.00 0.00 0.00 0.00 0.00 0.00 0.01 0.00 0.00 0.00 0.00 0.00 0.00 0.00 0.00 0.00 0.00 0.00 0.00 0.00 0.01 0.01 0.01 0.02 0.02 0.03 0.03 0.02 0.02 0.01 0.02
0.00 0.01 0.01 0.02 0.02 0.01 0.01 0.01 0.01 0.01 0.01 0.01 0.01 0.00 0.00 0.00 0.00 0.00 0.00 0.00 0.00 0.00 0.00 0.00 0.00 0.00 0.01 0.01 0.00 0.00 0.00 0.00 0.00 0.00 0.00 0.00 0.01 0.01 0.02 0.03 0.02 0.02 0.01 0.02
0.00 0.00 0.00 0.01 0.01 0.01 0.01 0.02 0.02 0.02 0.01 0.01 0.01 0.00 0.00 0.00 0.00 0.00 0.00 0.00 0.00 0.00 0.00 0.00 0.00 0.00 0.01 0.01 0.01 0.00 0.00 0.00 0.00 0.00 0.00 0.00 0.01 0.01 0.02 0.02 0.02 0.02 0.01 0.02
0.00 0.00 0.00 0.00 0.01 0.01 0.01 0.02 0.02 0.02 0.02 0.01 0.00 0.00 0.00 0.00 0.00 0.00 0.00 0.00 0.00 0.00 0.00 0.00 0.00 0.00 0.00 0.01 0.01 0.00 0.00 0.00 0.00 0.00 0.01 0.00 0.01 0.01 0.01 0.01 0.01 0.01 0.01 0.02
0.00 0.00 0.01 0.00 0.00 0.00 0.01 0.01 0.02 0.02 0.02 0.01 0.01 0.00 0.00 0.00 0.00 0.00 0.00 0.00 0.00 0.01 0.01 0.00 0.00 0.00 0.01 0.01 0.01 0.00 0.00 0.00 0.00 0.01 0.01 0.01 0.01 0.02 0.02 0.02 0.02 0.02 0.02 0.02
0.00 0.00 0.01 0.01 0.01 0.01 0.00 0.00 0.00 0.01 0.01 0.01 0.00 0.00 0.00 0.00 0.00 0.00 0.00 0.00 0.01 0.01 0.01 0.01 0.01 0.00 0.01 0.01 0.01 0.01 0.00 0.00 0.00 0.01 0.01 0.01 0.01 0.01 0.02 0.02 0.02 0.02 0.03 0.02
0.00 0.00 0.01 0.01 0.01 0.00 0.00 0.00 0.00 0.00 0.01 0.01 0.00 0.00 0.00 0.00 0.01 0.01 0.01 0.01 0.01 0.01 0.01 0.01 0.01 0.01 0.01 0.01 0.01 0.01 0.01 0.00 0.00 0.00 0.01 0.01 0.01 0.01 0.02 0.01 0.01 0.02 0.02 0.03
0.00 0.00 0.01 0.01 0.01 0.00 0.00 0.00 0.00 0.00 0.00 0.00 0.00 0.00 0.01 0.00 0.00 0.00 0.00 0.01 0.01 0.01 0.01 0.01 0.01 0.00 0.01 0.01 0.01 0.01 0.01 0.02 0.02 0.02 0.02 0.02 0.01 0.01 0.01 0.01 0.01 0.01 0.01 0.02
0.00 0.00 0.01 0.01 0.01 0.00 0.00 0.00 0.00 0.00 0.00 0.00 0.00 0.00 0.00 0.01 0.01 0.00 0.00 0.00 0.00 0.01 0.01 0.01 0.01 0.00 0.00 0.00 0.01 0.03 0.04 0.05 0.06 0.06 0.05 0.04 0.03 0.02 0.02 0.01 0.01 0.01 0.01 0.01
0.01 0.01 0.01 0.01 0.01 0.00 0.00 0.00 0.00 0.00 0.00 0.00 0.00 0.00 0.00 0.00 0.00 0.00 0.00 0.00 0.00 0.01 0.01 0.01 0.01 0.01 0.01 0.00 0.01 0.02 0.03 0.04 0.05 0.04 0.03 0.02 0.01 0.02 0.01 0.01 0.00 0.00 0.01 0.01
0.01 0.01 0.01 0.01 0.00 0.00 0.00 0.00 0.00 0.00 0.00 0.00 0.00 0.00 0.00 0.00 0.00 0.00 0.00 0.00 0.00 0.01 0.01 0.01 0.00 0.01 0.00 0.00 0.00 0.01 0.02 0.02 0.01 0.01 0.01 0.01 0.01 0.01 0.01 0.01 0.00 0.00 0.01 0.01
0.01 0.01 0.01 0.01 0.00 0.00 0.00 0.00 0.00 0.00 0.00 0.00 0.00 0.00 0.00 0.00 0.00 0.00 0.00 0.00 0.00 0.00 0.00 0.00 0.00 0.00 0.00 0.00 0.01 0.01 0.02 0.03 0.03 0.03 0.01 0.01 0.01 0.01 0.01 0.01 0.01 0.00 0.01 0.01
0.01 0.01 0.01 0.01 0.01 0.01 0.01 0.01 0.00 0.00 0.00 0.00 0.00 0.00 0.00 0.00 0.00 0.01 0.01 0.01 0.01 0.01 0.01 0.01 0.00 0.00 0.00 0.00 0.01 0.01 0.01 0.02 0.03 0.02 0.01 0.01 0.01 0.01 0.01 0.01 0.00 0.00 0.00 0.01
0.01 0.01 0.01 0.02 0.02 0.02 0.01 0.01 0.00 0.00 0.00 0.00 0.00 0.00 0.00 0.00 0.00 0.01 0.02 0.03 0.03 0.03 0.02 0.02 0.01 0.01 0.01 0.01 0.01 0.01 0.01 0.01 0.01 0.01 0.01 0.01 0.02 0.01 0.01 0.01 0.01 0.01 0.01 0.01
MSLP
1013.39 1013.92 1014.35 1014.66 1014.86 1014.97 1015.00 1014.98 1014.90 1014.76 1014.54 1014.23 1013.84 1013.37 1012.88 1012.41 1012.03 1011.79 1011.72 1011.82 1012.07 1012.42 1012.80 1013.17 1013.45 1013.64 1013.74 1013.75 1013.72 1013.68 1013.67 1013.70 1013.77 1013.86 1013.94 1013.99 1014.00 1013.96 1013.90 1013.83 1013.78 1013.78 1013.83 1013.91
1013.99 1014.41 1014.71 1014.90 1015.00 1015.05 1015.06 1015.05 1015.02 1014.92 1014.74 1014.45 1014.03 1013.51 1012.93 1012.37 1011.90 1011.58 1011.47 1011.56 1011.85 1012.26 1012.73 1013.18 1013.55 1013.80 1013.93 1013.95 1013.92 1013.87 1013.85 1013.88 1013.95 1014.06 1014.16 1014.24 1014.28 1014.26 1014.20 1014.12 1014.06 1014.03 1014.05 1014.11
1014.46 1014.76 1014.93 1015.01 1015.02 1015.02 1015.03 1015.06 1015.08 1015.05 1014.92 1014.65 1014.23 1013.66 1013.01 1012.35 1011.79 1011.39 1011.23 1011.30 1011.60 1012.06 1012.60 1013.13 1013.57 1013.88 1014.05 1014.10 1014.07 1014.02 1014.00 1014.02 1014.10 1014.22 1014.34 1014.44 1014.49 1014.48 1014.41 1014.32 1014.23 1014.17 1014.17 1014.22
1014.74 1014.91 1014.97 1014.94 1014.90 1014.88 1014.91 1015.00 1015.10 1015.15 1015.09 1014.85 1014.43 1013.83 1013.10 1012.36 1011.70 1011.22 1011.00 1011.04 1011.35 1011.84 1012.43 1013.02 1013.52 1013.88 1014.09 1014.17 1014.16 1014.12 1014.10 1014.13 1014.21 1014.34 1014.47 1014.58 1014.63 1014.60 1014.52 1014.40 1014.28 1014.19 1014.16 1014.20
1014.79 1014.85 1014.81 1014.71 1014.64 1014.64 1014.73 1014.90 1015.09 1015.24 1015.25 1015.06 1014.64 1014.00 1013.22 1012.39 1011.64 1011.08 1010.79 1010.80 1011.08 1011.58 1012.21 1012.84 1013.39 1013.80 1014.06 1014.17 1014.18 1014.15 1014.14 1014.18 1014.27 1014.41 1014.54 1014.64 1014.68 1014.64 1014.53 1014.38 1014.22 1014.10 1014.04 1014.05
1014.66 1014.62 1014.50 1014.37 1014.30 1014.34 1014.51 1014.78 1015.08 1015.32 1015.41 1015.26 1014.85 1014.19 1013.35 1012.45 1011.62 1010.98 1010.61 1010.57 1010.83 1011.33 1011.96 1012.62 1013.21 1013.66 1013.95 1014.09 1014.14 1014.13 1014.14 1014.19 1014.29 1014.43 1014.56 1014.65 1014.68 1014.61 1014.46 1014.27 1014.07 1013.91 1013.82 1013.81
1014.42 1014.30 1014.13 1014.00 1013.96 1014.07 1014.32 1014.70 1015.10 1015.43 1015.58 1015.47 1015.06 1014.37 1013.49 1012.52 1011.61 1010.90 1010.48 1010.38 1010.61 1011.09 1011.72 1012.39 1013.00 1013.48 1013.80 1013.97 1014.05 1014.07 1014.09 1014.16 1014.27 1014.41 1014.55 1014.63 1014.64 1014.55 1014.38 1014.15 1013.91 1013.70 1013.57 1013.54
1014.17 1013.99 1013.81 1013.69 1013.70 1013.87 1014.22 1014.68 1015.16 1015.55 1015.74 1015.65 1015.23 1014.52 1013.59 1012.57 1011.61 1010.85 1010.37 1010.23 1010.42 1010.88 1011.49 1012.16 1012.78 1013.28 1013.62 1013.82 1013.93 1013.97 1014.03 1014.11 1014.24 1014.39 1014.53 1014.61 1014.61 1014.51 1014.32 1014.06 1013.78 1013.54 1013.37 1013.30
1014.03 1013.82 1013.63 1013.53 1013.59 1013.82 1014.22 1014.74 1015.26 1015.67 1015.87 1015.77 1015.33 1014.59 1013.63 1012.58 1011.59 1010.79 1010.28 1010.11 1010.28 1010.70 1011.30 1011.96 1012.57 1013.08 1013.44 1013.66 1013.79 1013.87 1013.95 1014.06 1014.21 1014.38 1014.54 1014.64 1014.64 1014.54 1014.34 1014.07 1013.78 1013.51 1013.31 1013.19
1014.08 1013.85 1013.66 1013.58 1013.66 1013.92 1014.34 1014.85 1015.36 1015.75 1015.91 1015.77 1015.30 1014.53 1013.56 1012.50 1011.50 1010.70 1010.19 1010.01 1010.15 1010.56 1011.14 1011.77 1012.38 1012.88 1013.25 1013.50 1013.66 1013.77 1013.88 1014.03 1014.21 1014.41 1014.59 1014.72 1014.75 1014.68 1014.49 1014.23 1013.94 1013.66 1013.43 1013.27
1014.34 1014.09 1013.89 1013.81 1013.88 1014.13 1014.51 1014.97 1015.41 1015.73 1015.81 1015.61 1015.09 1014.30 1013.32 1012.28 1011.31 1010.53 1010.04 1009.88 1010.02 1010.41 1010.97 1011.59 1012.18 1012.67 1013.05 1013.32 1013.51 1013.66 1013.82 1014.01 1014.23 1014.48 1014.70 1014.87 1014.95 1014.92 1014.78 1014.55 1014.28 1014.01 1013.77 1013.59
1014.75 1014.48 1014.27 1014.16 1014.19 1014.37 1014.66 1015.02 1015.34 1015.54 1015.52 1015.23 1014.66 1013.86 1012.90 1011.90 1010.99 1010.27 1009.82 1009.68 1009.83 1010.22 1010.76 1011.36 1011.93 1012.42 1012.81 1013.11 1013.33 1013.53 1013.74 1013.99 1014.27 1014.57 1014.85 1015.07 1015.21 1015.24 1015.16 1014.99 1014.76 1014.52 1014.29 1014.11
1015.22 1014.92 1014.67 1014.50 1014.46 1014.53 1014.71 1014.92 1015.09 1015.14 1015.00 1014.63 1014.02 1013.22 1012.30 1011.37 1010.53 1009.89 1009.50 1009.40 1009.57 1009.95 1010.47 1011.04 1011.60 1012.09 1012.50 1012.83 1013.10 1013.36 1013.64 1013.95 1014.30 1014.66 1015.00 1015.29 1015.50 1015.60 1015.59 1015.49 1015.32 1015.13 1014.94 1014.77
1015.63 1015.29 1014.99 1014.75 1014.60 1014.56 1014.58 1014.63 1014.64 1014.54 1014.29 1013.85 1013.22 1012.44 1011.58 1010.72 1009.98 1009.41 1009.09 1009.02 1009.19 1009.56 1010.05 1010.60 1011.14 1011.64 1012.07 1012.45 1012.79 1013.13 1013.49 1013.88 1014.30 1014.73 1015.14 1015.49 1015.76 1015.93 1016.00 1015.97 1015.88 1015.75 1015.61 1015.48
1015.90 1015.51 1015.14 1014.82 1014.57 1014.39 1014.26 1014.16 1014.02 1013.80 1013.46 1012.97 1012.34 1011.60 1010.81 1010.04 1009.38 1008.89 1008.61 1008.56 1008.72 1009.05 1009.50 1010.02 1010.55 1011.05 1011.52 1011.96 1012.39 1012.82 1013.28 1013.76 1014.27 1014.77 1015.24 1015.65 1015.98 1016.21 1016.34 1016.38 1016.36 1016.30 1016.23 1016.15
1016.00 1015.55 1015.11 1014.71 1014.36 1014.06 1013.81 1013.58 1013.33 1013.02 1012.63 1012.12 1011.51 1010.82 1010.11 1009.42 1008.83 1008.39 1008.12 1008.05 1008.17 1008.45 1008.84 1009.31 1009.82 1010.34 1010.86 1011.38 1011.91 1012.45 1013.02 1013.61 1014.19 1014.76 1015.29 1015.75 1016.12 1016.39 1016.58 1016.68 1016.73 1016.74 1016.73 1016.71
1015.95 1015.45 1014.95 1014.48 1014.04 1013.66 1013.33 1013.01 1012.70 1012.34 1011.93 1011.44 1010.88 1010.25 1009.60 1008.98 1008.42 1007.99 1007.70 1007.57 1007.61 1007.80 1008.11 1008.53 1009.02 1009.55 1010.13 1010.74 1011.38 1012.05 1012.74 1013.43 1014.10 1014.74 1015.31 1015.80 1016.20 1016.50 1016.72 1016.87 1016.97 1017.04 1017.09 1017.14
1015.85 1015.30 1014.75 1014.22 1013.74 1013.31 1012.93 1012.58 1012.25 1011.90 1011.51 1011.06 1010.55 1009.99 1009.39 1008.79 1008.24 1007.76 1007.40 1007.18 1007.10 1007.18 1007.39 1007.74 1008.20 1008.75 1009.39 1010.10 1010.86 1011.66 1012.47 1013.27 1014.03 1014.72 1015.33 1015.84 1016.25 1016.56 1016.79 1016.97 1017.11 1017.23 1017.34 1017.44
1015.82 1015.22 1014.63 1014.07 1013.57 1013.12 1012.73 1012.40 1012.08 1011.77 1011.43 1011.04 1010.59 1010.07 1009.50 1008.90 1008.30 1007.75 1007.28 1006.93 1006.71 1006.64 1006.75 1007.02 1007.45 1008.02 1008.72 1009.53 1010.41 1011.33 1012.26 1013.16 1013.99 1014.73 1015.37 1015.89 1016.29 1016.61 1016.85 1017.04 1017.21 1017.37 1017.53 1017.69
1015.93 1015.30 1014.68 1014.11 1013.59 1013.16 1012.79 1012.49 1012.22 1011.97 1011.69 1011.36 1010.95 1010.46 1009.89 1009.26 1008.59 1007.94 1007.33 1006.83 1006.46 1006.25 1006.24 1006.44 1006.84 1007.43 1008.19 1009.08 1010.07 1011.10 1012.13 1013.11 1014.01 1014.79 1015.44 1015.96 1016.37 1016.67 1016.92 1017.12 1017.32 1017.52 1017.73 1017.93
1016.23 1015.56 1014.92 1014.34 1013.83 1013.41 1013.08 1012.82 1012.61 1012.41 1012.18 1011.90 1011.52 1011.04 1010.45 1009.76 1009.02 1008.25 1007.51 1006.86 1006.35 1006.02 1005.91 1006.04 1006.41 1007.02 1007.82 1008.79 1009.86 1010.98 1012.10 1013.14 1014.08 1014.89 1015.55 1016.07 1016.47 1016.78 1017.03 1017.26 1017.49 1017.73 1017.98 1018.24
1016.68 1015.97 1015.30 1014.71 1014.21 1013.80 1013.50 1013.28 1013.11 1012.95 1012.76 1012.50 1012.13 1011.64 1011.02 1010.28 1009.45 1008.59 1007.74 1006.98 1006.35 1005.92 1005.74 1005.83 1006.18 1006.80 1007.64 1008.66 1009.79 1010.97 1012.13 1013.22 1014.18 1015.00 1015.66 1016.18 1016.59 1016.90 1017.18 1017.44 1017.71 1018.01 1018.31 1018.62
1017.17 1016.43 1015.73 1015.12 1014.61 1014.21 1013.92 1013.71 1013.56 1013.42 1013.24 1012.98 1012.61 1012.10 1011.45 1010.66 1009.77 1008.85 1007.93 1007.09 1006.41 1005.93 1005.71 1005.77 1006.13 1006.76 1007.62 1008.66 1009.82 1011.03 1012.21 1013.30 1014.27 1015.08 1015.75 1016.27 1016.69 1017.03 1017.35 1017.66 1017.98 1018.34 1018.71 1019.07
1017.59 1016.81 1016.08 1015.45 1014.92 1014.51 1014.21 1013.99 1013.83 1013.67 1013.47 1013.19 1012.80 1012.26 1011.59 1010.78 1009.87 1008.93 1008.00 1007.15 1006.46 1005.98 1005.76 1005.84 1006.20 1006.84 1007.71 1008.75 1009.91 1011.10 1012.27 1013.35 1014.30 1015.11 1015.77 1016.31 1016.75 1017.14 1017.50 1017.87 1018.27 1018.69 1019.13 1019.55
1017.81 1016.99 1016.24 1015.58 1015.04 1014.60 1014.27 1014.02 1013.82 1013.62 1013.38 1013.06 1012.63 1012.07 1011.38 1010.58 1009.70 1008.78 1007.90 1007.10 1006.47 1006.04 1005.86 1005.97 1006.36 1007.00 1007.86 1008.88 1010.00 1011.16 1012.28 1013.32 1014.25 1015.04 1015.71 1016.27 1016.75 1017.18 1017.61 1018.05 1018.52 1019.01 1019.51 1019.99
1017.75 1016.92 1016.15 1015.49 1014.92 1014.46 1014.09 1013.78 1013.52 1013.25 1012.95 1012.58 1012.11 1011.53 1010.85 1010.08 1009.26 1008.43 1007.64 1006.94 1006.41 1006.07 1005.97 1006.14 1006.55 1007.19 1008.02 1009.01 1010.07 1011.17 1012.23 1013.22 1014.11 1014.89 1015.57 1016.15 1016.68 1017.17 1017.66 1018.17 1018.71 1019.26 1019.82 1020.34
Thickness
5754 5747 5740 5744 5746 5745 5742 5737 5735 5739 5745 5738 5737 5739 5744 5747 5745 5745 5746 5745 5745 5744 5746 5746 5743 5741 5739 5737 5735 5733 5730 5726 5723 5719 5717 5714 5711 5711 5709 5707 5705 5703 5702 5701
5743 5739 5745 5747 5743 5740 5738 5733 5734 5738 5742 5737 5736 5738 5745 5747 5745 5746 5746 5746 5745 5744 5743 5742 5741 5739 5737 5735 5733 5732 5729 5726 5722 5718 5717 5713 5711 5709 5707 5703 5702 5701 5700 5698
5738 5742 5746 5740 5735 5732 5733 5733 5733 5732 5735 5738 5733 5734 5740 5746 5747 5746 5746 5747 5747 5744 5742 5741 5739 5736 5734 5732 5732 5729 5727 5724 5720 5717 5714 5711 5707 5705 5703 5701 5699 5698 5696 5695
5737 5742 5739 5735 5733 5732 5727 5736 5734 5730 5727 5727 5727 5721 5738 5742 5741 5742 5743 5744 5745 5743 5742 5740 5737 5734 5732 5731 5730 5728 5725 5722 5719 5716 5711 5708 5703 5701 5700 5700 5698 5696 5694 5692
5731 5735 5733 5731 5734 5734 5732 5735 5732 5729 5726 5724 5728 5722 5735 5740 5736 5740 5743 5743 5743 5743 5740 5738 5735 5733 5731 5729 5727 5725 5722 5719 5716 5713 5709 5705 5703 5701 5700 5698 5696 5695 5693 5690
5734 5737 5736 5736 5737 5736 5732 5729 5726 5725 5724 5712 5723 5719 5724 5738 5736 5739 5742 5743 5742 5741 5739 5736 5734 5731 5728 5726 5723 5720 5718 5715 5712 5709 5707 5704 5701 5699 5696 5694 5693 5692 5691 5689
5723 5729 5735 5736 5728 5729 5728 5720 5710 5706 5706 5712 5722 5717 5725 5739 5740 5739 5740 5741 5740 5739 5737 5733 5729 5727 5724 5721 5718 5716 5714 5711 5709 5707 5705 5704 5701 5699 5697 5694 5692 5690 5688 5687
5712 5714 5727 5731 5728 5725 5725 5723 5707 5697 5701 5712 5718 5716 5731 5740 5740 5741 5740 5740 5739 5736 5734 5731 5728 5725 5722 5718 5715 5714 5711 5708 5706 5704 5703 5701 5699 5696 5695 5692 5690 5688 5686 5685
5714 5713 5724 5726 5730 5729 5720 5719 5725 5714 5710 5705 5717 5724 5732 5737 5735 5735 5734 5734 5733 5732 5731 5728 5726 5723 5720 5716 5712 5711 5708 5705 5703 5702 5699 5697 5695 5693 5691 5689 5687 5685 5684 5682
5718 5708 5716 5720 5722 5720 5723 5722 5713 5706 5694 5693 5706 5714 5720 5725 5727 5729 5729 5729 5730 5729 5727 5726 5723 5720 5717 5714 5710 5708 5706 5703 5700 5698 5696 5693 5691 5689 5687 5686 5683 5682 5681 5679
5714 5707 5709 5712 5711 5713 5710 5709 5710 5709 5706 5694 5694 5709 5728 5726 5726 5726 5727 5727 5727 5725 5724 5721 5719 5717 5714 5711 5707 5705 5703 5700 5697 5695 5693 5690 5688 5686 5684 5681 5680 5678 5677 5676
5706 5706 5702 5707 5713 5712 5712 5712 5708 5697 5698 5700 5696 5707 5729 5726 5725 5724 5723 5723 5724 5723 5721 5718 5716 5713 5711 5708 5705 5702 5700 5697 5694 5692 5690 5687 5685 5682 5681 5678 5676 5675 5674 5673
5698 5697 5690 5692 5696 5700 5701 5703 5703 5703 5699 5695 5689 5702 5722 5722 5720 5720 5719 5720 5719 5717 5716 5713 5711 5709 5706 5704 5702 5699 5697 5694 5690 5687 5686 5683 5680 5679 5677 5675 5672 5671 5670 5669
5693 5692 5687 5682 5690 5692 5691 5692 5694 5694 5690 5691 5695 5703 5711 5713 5713 5714 5715 5715 5715 5714 5712 5709 5706 5705 5703 5701 5699 5696 5693 5690 5687 5684 5681 5679 5677 5675 5673 5671 5668 5667 5666 5665
5686 5684 5686 5686 5687 5684 5684 5686 5687 5687 5692 5690 5697 5698 5705 5708 5708 5709 5710 5710 5709 5708 5707 5705 5702 5701 5699 5697 5695 5693 5690 5686 5683 5680 5677 5675 5673 5671 5668 5665 5663 5662 5661 5660
5677 5675 5675 5674 5677 5677 5676 5682 5683 5684 5687 5688 5689 5692 5703 5704 5704 5703 5704 5703 5703 5702 5702 5701 5700 5698 5696 5694 5691 5689 5686 5683 5679 5676 5673 5671 5668 5666 5663 5660 5658 5657 5656 5655
5668 5667 5663 5667 5669 5666 5669 5682 5682 5681 5684 5683 5682 5688 5692 5692 5692 5693 5695 5696 5696 5697 5697 5696 5696 5696 5695 5692 5689 5686 5683 5679 5675 5672 5669 5666 5663 5660 5658 5656 5653 5651 5650 5650
5660 5659 5658 5658 5657 5650 5676 5682 5679 5676 5674 5675 5676 5679 5680 5681 5684 5687 5688 5687 5688 5690 5690 5691 5692 5692 5691 5689 5685 5682 5678 5674 5671 5668 5664 5661 5658 5655 5653 5651 5649 5647 5646 5644
5656 5652 5649 5649 5648 5657 5667 5670 5668 5666 5666 5669 5668 5670 5673 5676 5679 5683 5684 5683 5682 5683 5684 5686 5687 5686 5685 5683 5680 5676 5672 5669 5666 5663 5660 5657 5654 5651 5649 5646 5645 5644 5641 5640
5643 5646 5644 5641 5637 5644 5660 5664 5665 5661 5657 5662 5662 5662 5664 5665 5666 5671 5673 5673 5674 5676 5677 5678 5679 5678 5677 5675 5673 5669 5667 5664 5661 5659 5656 5653 5650 5647 5645 5643 5641 5639 5637 5635
5633 5633 5633 5635 5635 5647 5656 5655 5654 5645 5652 5655 5655 5655 5654 5653 5656 5660 5662 5663 5665 5667 5668 5669 5670 5669 5668 5667 5665 5663 5661 5659 5657 5654 5651 5648 5646 5644 5641 5639 5636 5634 5632 5630
5633 5631 5630 5630 5628 5636 5646 5645 5643 5646 5650 5649 5649 5648 5647 5647 5649 5651 5653 5654 5657 5658 5659 5661 5661 5661 5660 5659 5658 5657 5656 5654 5651 5647 5645 5643 5641 5639 5637 5633 5631 5629 5627 5624
5629 5631 5632 5632 5634 5638 5639 5638 5639 5639 5639 5639 5640 5640 5639 5639 5640 5642 5644 5646 5648 5650 5652 5653 5653 5652 5652 5651 5651 5650 5649 5647 5644 5641 5639 5638 5636 5634 5632 5629 5626 5624 5621 5619
5623 5621 5621 5622 5628 5628 5628 5629 5628 5629 5629 5630 5630 5630 5631 5631 5633 5634 5636 5638 5639 5641 5642 5643 5644 5644 5644 5644 5642 5642 5641 5639 5637 5636 5635 5633 5632 5629 5627 5624 5622 5619 5617 5615
5614 5611 5611 5614 5618 5619 5620 5620 5621 5620 5621 5621 5622 5622 5623 5623 5625 5626 5628 5629 5631 5632 5634 5635 5635 5636 5636 5636 5635 5634 5634 5632 5631 5630 5629 5628 5626 5625 5622 5620 5617 5616 5614 5613
5608 5606 5605 5609 5615 5613 5613 5614 5613 5612 5612 5613 5613 5614 5615 5616 5617 5619 5620 5621 5623 5625 5626 5626 5627 5628 5629 5628 5628 5627 5627 5626 5625 5624 5622 5621 5620 5618 5616 5614 5611 5607 5606 5604